Regional Weather Roundup
Issued by NWS Sterling, VA

Home | Current Version | Previous Version | Text Only | Print | Product List | Glossary Off
Versions: 1 2 3 4 5 6 7 8 9 10 11 12 13 14 15 16 17 18 19 20 21 22 23 24 25 26 27 28 29 30 31 32 33 34 35 36 37 38 39 40 41 42 43 44 45 46 47 48 49 50

000
ASUS41 KLWX 071110
RWRLWX

REGIONAL WEATHER ROUNDUP
NATIONAL WEATHER SERVICE BALTIMORE MD/WASHINGTON DC
600 AM EST SUN FEB 07 2016

Note: "FAIR" indicates few or no clouds below 12,000 feet
with no significant weather and/or obstructions to visibility.
 TC=TEMPERATURE CELSIUS

 * =Non NWS site. Station does not report precipitation (e.g. rain,
    snow, etc.), thunder, or fog.

DCZ001-MDZ009-015-VAZ040>042-051-053>054-071200-
WASHINGTON METRO

CITY           SKY/WX    TMP DP  RH WIND       PRES   REMARKS
WASHINGTON NAT MOCLDY    32  26  78 CALM      30.19F
DULLES         FAIR      25  21  85 CALM      30.19F
ANDREWS AFB    PTCLDY    28  24  85 NW1       30.15F
FT BELVOIR     FAIR      25  23  91 NW2       30.18F
QUANTICO       FAIR      30  25  81 NW3       30.20F
COLLEGE PARK*  FAIR      27  27 100 CALM      30.20F
LEESBURG*      FAIR      27  27 100 NW3       30.19F
MANASSAS*      FAIR      21  21 100 N5        30.17F
GAITHERSBURG*  CLEAR     25  19  80 CALM      30.21F

$$

MDZ006>007-011-014-071200-
BALTIMORE METRO

CITY           SKY/WX    TMP DP  RH WIND       PRES   REMARKS
BWI AIRPORT    PTCLDY    24  21  88 CALM      30.20F
MD SCIENCE CTR   N/A     31  24  75 MISG      30.20S
MARTIN STATE   CLEAR     27  27 100 CALM      30.22F
ANNAPOLIS      CLOUDY    30  26  85 NW3       30.19F
FORT MEADE*    CLEAR     23  21  93 CALM      30.23F

$$

MDZ012-015-019>023-071200-
MARYLAND EASTERN SHORE

CITY           SKY/WX    TMP DP  RH WIND       PRES   REMARKS
OCEAN CITY     PTCLDY    25  23  92 CALM      30.18F
SALISBURY      CLOUDY    26  25  96 CALM      30.17F
BAY BRIDGE AP*   N/A     32  32 100 CALM      30.21F
EASTON*        CLEAR     28  28 100 CALM      30.24F

$$

MDZ017>025-071200-
SOUTHERN MARYLAND

CITY           SKY/WX    TMP DP  RH WIND       PRES   REMARKS
PATUXENT RIVER MOCLDY    31  26  82 CALM      30.17F
ST INIGOES     PTCLDY    30  28  92 CALM      30.17F
LEONARDTOWN*   PTCLDY    30  27  86 CALM      30.18F

$$

MDZ003>005-071200-
NORTH CENTRAL MARYLAND

CITY           SKY/WX    TMP DP  RH WIND       PRES   REMARKS
FREDERICK*     NOT AVBL
HAGERSTOWN APT CLEAR     25  17  72 CALM      30.18R
WESTMINSTER*   CLEAR     25  21  86 CALM      30.17R

$$

MDZ501>502-071200-
WESTERN MARYLAND

CITY           SKY/WX    TMP DP  RH WIND       PRES   REMARKS
OAKLAND*       CLEAR     27  12  54 S5        30.07S
CUMBERLAND*    CLEAR     25  25 100 CALM      30.22S

$$

VAZ025>031-071200-
SHENANDOAH VALLEY

CITY           SKY/WX    TMP DP  RH WIND       PRES   REMARKS
WINCHESTER*    FAIR      28  21  74 NW3       30.16F
FRONT ROYAL*   FAIR      25  21  86 CALM      30.16S
LURAY*         FAIR      23  23 100 CALM      30.16F
NEW MARKET*    FAIR      22  20  91 SW5       30.17R
STAUNTON*      FAIR      26  23  87 CALM      30.16F
WAYNESBORO*    FAIR      28  19  68 NW5       30.13F

$$

WVZ021-048>050-054>055-071200-
EASTERN WEST VIRGINIA PANHANDLE

CITY           SKY/WX    TMP DP  RH WIND       PRES   REMARKS
MARTINSBURG    FAIR      19  17  92 S3        30.18F
PETERSBURG*    FAIR      22  20  92 CALM      30.19S

$$

VAZ036>039-050-071200-
CENTRAL FOOTHILLS

CITY           SKY/WX    TMP DP  RH WIND       PRES   REMARKS
CHARLOTTESVILL FAIR      27  20  75 W3        30.16F
CULPEPER*      FAIR      23  21  93 CALM      30.18F
ORANGE*        FAIR      28  25  86 CALM      30.18F
GORDONSVILLE*  FAIR      26  23  90 CALM      30.16F
WARRENTON*     FAIR      24  23  97 CALM      30.16F

$$

VAZ055>057-071200-
NORTH AND CENTRAL PIEDMONT

CITY           SKY/WX    TMP DP  RH WIND       PRES   REMARKS
FREDERICKSBRG* FAIR      28  27  94 CALM      30.17F
STAFFORD*      FAIR      25  23  89 CALM      30.22F

$$

NCZ024-NYZ072-PAZ021-071-VAZ022-071-071200-
OTHER REGIONAL OBSERVATIONS

CITY           SKY/WX    TMP DP  RH WIND       PRES   REMARKS
NEW YORK CITY  CLEAR     34  20  56 CALM      30.20F
PHILADELPHIA   PTCLDY    30  24  78 W3        30.22S
PITTSBURGH     CLEAR     24  14  65 CALM      30.11F
ROANOKE        MOCLDY    28  20  71 SW3       30.18S
RICHMOND       CLOUDY    31  28  89 N5        30.15F
RALEIGH        CLOUDY    37  25  61 N5        30.12F

$$

ANZ530>537-071200-
MARINE OBSERVATIONS

STATION/POSITION TIME  TEMP    WIND        PRES
                       AIR SEA DIR/SP/G
                 (UTC) (F)     (DEG/KT/KT) (MB)
THOMAS PT LIGHT  NOT AVBL
BALT KEY BRIDGE  1000   32     210/  2/  3 1023.5R
COVE POINT       1000   35     230/  3/  4 1023.8S
LEWISETTA        1000   33 42  320/  3/  3 1022.6F
SOLOMONS ISLAND  1000   33 41  310/  2/  3   N/A

$$




USA.gov is the U.S. government's official web portal to all federal, state and local government web resources and services.